| time (UTC) | temp F | wind direction | speed MPH | gust MPH | rain 1hr in | rain 24hr in | rain mn in | humidity % | barometer mb |
| 20260901051553 | 74 | 0 | 0.0 | 0.0 | 0.00 | 0.00 | 0.00 | 87 | 1020.1 |
| 20260901044558 | 75 | 0 | 0.0 | 0.0 | 0.00 | 0.00 | 0.00 | 86 | 1020.0 |
| 20260901043103 | 75 | 0 | 0.0 | 0.0 | 0.00 | 0.00 | 0.00 | 85 | 1020.0 |
| 20260901041600 | 75 | 0 | 0.0 | 0.0 | 0.00 | 0.00 | 0.00 | 84 | 1020.0 |
| 20260901040104 | 75 | 0 | 0.0 | 0.0 | 0.00 | 0.00 | 0.00 | 84 | 1019.9 |
| 20260901034554 | 75 | 0 | 0.0 | 0.0 | 0.00 | 0.00 | 0.00 | 83 | 1020.0 |
| 20260901033103 | 76 | 0 | 0.0 | 0.0 | 0.00 | 0.00 | 0.00 | 83 | 1020.1 |
| 20260901031603 | 76 | 0 | 0.0 | 0.0 | 0.00 | 0.00 | 0.00 | 82 | 1020.1 |
| 20260901030103 | 76 | 0 | 0.0 | 0.0 | 0.00 | 0.00 | 0.00 | 81 | 1020.1 |
| 20260901024558 | 77 | 0 | 0.0 | 0.0 | 0.00 | 0.00 | 0.00 | 79 | 1020.1 |
| 20260901023103 | 78 | 0 | 0.0 | 0.0 | 0.00 | 0.00 | 0.00 | 78 | 1020.0 |
| 20260901021600 | 78 | 0 | 0.0 | 1.0 | 0.00 | 0.00 | 0.00 | 77 | 1019.9 |
| 20260901020057 | 79 | 0 | 0.0 | 0.0 | 0.00 | 0.00 | 0.00 | 76 | 1019.7 |
| 20260901014554 | 79 | 0 | 0.0 | 0.0 | 0.00 | 0.00 | 0.00 | 74 | 1019.6 |
| 20260901013107 | 80 | 0 | 0.0 | 1.0 | 0.00 | 0.00 | 0.00 | 73 | 1019.3 |
| 20260901011601 | 81 | 0 | 0.0 | 0.0 | 0.00 | 0.00 | 0.00 | 71 | 1019.3 |
| 20260901010057 | 81 | 0 | 0.0 | 0.0 | 0.00 | 0.00 | 0.00 | 72 | 1019.0 |
| 20260901004603 | 82 | 0 | 0.0 | 0.0 | 0.00 | 0.00 | 0.00 | 69 | 1018.8 |
| 20260901003107 | 83 | 0 | 0.0 | 0.0 | 0.00 | 0.00 | 0.00 | 65 | 1018.8 |
| 20260901001559 | 87 | 0 | 0.0 | 3.0 | 0.00 | 0.00 | 0.00 | 57 | 1018.6 |
| 20260901000059 | 88 | 0 | 0.0 | 3.0 | 0.00 | 0.00 | 0.00 | 55 | 1018.8 |
| 20260831234553 | 89 | 0 | 0.0 | 3.0 | 0.00 | 0.00 | 0.00 | 53 | 1018.8 |
| 20260831233049 | 90 | 51 | 1.0 | 3.0 | 0.00 | 0.00 | 0.00 | 52 | 1018.8 |
| 20260831231611 | 90 | 0 | 0.0 | 4.0 | 0.00 | 0.00 | 0.00 | 51 | 1018.8 |
| 20260831230054 | 91 | 81 | 1.0 | 5.0 | 0.00 | 0.00 | 0.00 | 52 | 1018.7 |
| 20260831224552 | 91 | 105 | 2.0 | 7.0 | 0.00 | 0.00 | 0.00 | 52 | 1019.1 |
| 20260831223053 | 92 | 91 | 1.0 | 6.0 | 0.00 | 0.00 | 0.00 | 53 | 1018.9 |
| 20260831221604 | 93 | 255 | 1.0 | 6.0 | 0.00 | 0.00 | 0.00 | 53 | 1018.7 |
| 20260831220057 | 91 | 322 | 2.0 | 9.0 | 0.00 | 0.00 | 0.00 | 54 | 1018.8 |
| 20260831214551 | 92 | 307 | 3.0 | 7.0 | 0.00 | 0.00 | 0.00 | 54 | 1018.9 |
| 20260831213058 | 93 | 290 | 3.0 | 6.0 | 0.00 | 0.00 | 0.00 | 54 | 1019.0 |
| 20260831211608 | 92 | 316 | 1.0 | 5.0 | 0.00 | 0.00 | 0.00 | 54 | 1019.1 |
| 20260831210051 | 92 | 335 | 1.0 | 11.0 | 0.00 | 0.00 | 0.00 | 54 | 1019.1 |
| 20260831204600 | 93 | 0 | 1.0 | 5.0 | 0.00 | 0.00 | 0.00 | 52 | 1019.3 |
| 20260831203049 | 92 | 0 | 1.0 | 6.0 | 0.00 | 0.00 | 0.00 | 55 | 1019.4 |
| 20260831201600 | 94 | 100 | 3.0 | 11.0 | 0.00 | 0.00 | 0.00 | 54 | 1019.5 |
| 20260831200107 | 93 | 23 | 3.0 | 8.0 | 0.00 | 0.00 | 0.00 | 54 | 1019.5 |
| 20260831194641 | 94 | 22 | 2.0 | 8.0 | 0.00 | 0.00 | 0.00 | 53 | 1019.9 |
| 20260831193059 | 91 | 0 | 3.0 | 9.0 | 0.00 | 0.00 | 0.00 | 57 | 1019.9 |
| 20260831191556 | 93 | 300 | 3.0 | 10.0 | 0.00 | 0.00 | 0.00 | 55 | 1020.1 |
| 20260831190109 | 91 | 325 | 3.0 | 9.0 | 0.00 | 0.00 | 0.00 | 59 | 1020.4 |
| 20260831184601 | 90 | 274 | 1.0 | 7.0 | 0.00 | 0.00 | 0.00 | 63 | 1020.5 |
| 20260831183057 | 90 | 0 | 1.0 | 5.0 | 0.00 | 0.00 | 0.00 | 62 | 1020.9 |
| 20260831181600 | 90 | 5 | 3.0 | 8.0 | 0.00 | 0.00 | 0.00 | 63 | 1021.0 |
| 20260831180101 | 89 | 132 | 3.0 | 8.0 | 0.00 | 0.00 | 0.00 | 62 | 1021.2 |
| 20260831174555 | 89 | 153 | 2.0 | 7.0 | 0.00 | 0.00 | 0.00 | 63 | 1021.2 |
| 20260831173100 | 87 | 121 | 0.0 | 5.0 | 0.00 | 0.00 | 0.00 | 67 | 1021.4 |
| 20260831171601 | 86 | 313 | 2.0 | 5.0 | 0.00 | 0.00 | 0.00 | 69 | 1021.6 |
| 20260831170055 | 89 | 22 | 3.0 | 7.0 | 0.00 | 0.00 | 0.00 | 63 | 1021.6 |
| 20260831164548 | 87 | 0 | 2.0 | 5.0 | 0.00 | 0.00 | 0.00 | 66 | 1021.8 |
| 20260831163101 | 87 | 129 | 1.0 | 6.0 | 0.00 | 0.00 | 0.00 | 68 | 1022.0 |
| 20260831161600 | 87 | 13 | 0.0 | 6.0 | 0.00 | 0.00 | 0.00 | 68 | 1022.0 |
| 20260831160103 | 86 | 54 | 1.0 | 8.0 | 0.00 | 0.00 | 0.00 | 70 | 1022.1 |
| 20260831154634 | 87 | 122 | 1.0 | 8.0 | 0.00 | 0.00 | 0.00 | 70 | 1022.1 |
| 20260831153116 | 85 | 17 | 2.0 | 6.0 | 0.00 | 0.00 | 0.00 | 74 | 1022.1 |
| 20260831151606 | 85 | 0 | 1.0 | 6.0 | 0.00 | 0.00 | 0.00 | 73 | 1022.1 |
| 20260831150059 | 84 | 166 | 2.0 | 6.0 | 0.00 | 0.00 | 0.00 | 76 | 1022.1 |
| 20260831144651 | 83 | 0 | 2.0 | 4.0 | 0.00 | 0.00 | 0.00 | 78 | 1022.1 |
| 20260831143100 | 82 | 47 | 1.0 | 5.0 | 0.00 | 0.00 | 0.00 | 81 | 1022.2 |
| 20260831141600 | 81 | 68 | 0.0 | 4.0 | 0.00 | 0.00 | 0.00 | 81 | 1022.1 |
| 20260831140059 | 80 | 145 | 1.0 | 3.0 | 0.00 | 0.00 | 0.00 | 83 | 1022.0 |
| 20260831134550 | 80 | 68 | 1.0 | 3.0 | 0.00 | 0.00 | 0.00 | 83 | 1022.1 |
| 20260831133103 | 80 | 0 | 0.0 | 7.0 | 0.00 | 0.00 | 0.00 | 84 | 1022.0 |
| 20260831131604 | 79 | 55 | 0.0 | 3.0 | 0.00 | 0.00 | 0.00 | 87 | 1022.1 |
| 20260831130053 | 78 | 163 | 0.0 | 2.0 | 0.00 | 0.00 | 0.00 | 89 | 1022.0 |
| 20260831124555 | 76 | 0 | 0.0 | 0.0 | 0.00 | 0.00 | 0.00 | 91 | 1022.0 |
| 20260831123103 | 75 | 0 | 0.0 | 0.0 | 0.00 | 0.00 | 0.00 | 94 | 1022.0 |
| 20260831121555 | 73 | 0 | 1.0 | 2.0 | 0.00 | 0.00 | 0.00 | 96 | 1021.7 |
| 20260831120109 | 72 | 0 | 0.0 | 0.0 | 0.00 | 0.00 | 0.00 | 97 | 1021.6 |
| 20260831114601 | 71 | 0 | 0.0 | 1.0 | 0.00 | 0.00 | 0.00 | 96 | 1021.6 |
| 20260831113108 | 71 | 0 | 0.0 | 1.0 | 0.00 | 0.00 | 0.00 | 96 | 1021.5 |
| 20260831111557 | 71 | 0 | 0.0 | 0.0 | 0.00 | 0.00 | 0.00 | 96 | 1021.4 |
| 20260831110054 | 71 | 0 | 0.0 | 0.0 | 0.00 | 0.00 | 0.00 | 96 | 1021.3 |
| 20260831104608 | 71 | 0 | 0.0 | 0.0 | 0.00 | 0.00 | 0.00 | 96 | 1021.1 |
| 20260831103100 | 71 | 0 | 0.0 | 0.0 | 0.00 | 0.00 | 0.00 | 96 | 1021.1 |
| 20260831101555 | 71 | 0 | 0.0 | 0.0 | 0.00 | 0.00 | 0.00 | 96 | 1021.0 |
| 20260831100130 | 71 | 0 | 0.0 | 0.0 | 0.00 | 0.00 | 0.00 | 96 | 1020.9 |
| 20260831094601 | 72 | 0 | 0.0 | 0.0 | 0.00 | 0.00 | 0.00 | 95 | 1020.9 |
| 20260831093059 | 72 | 0 | 0.0 | 0.0 | 0.00 | 0.00 | 0.00 | 95 | 1020.8 |
| 20260831091606 | 72 | 0 | 0.0 | 0.0 | 0.00 | 0.00 | 0.00 | 95 | 1020.6 |
| 20260831090104 | 72 | 0 | 0.0 | 0.0 | 0.00 | 0.00 | 0.00 | 95 | 1020.6 |
| 20260831084636 | 72 | 360 | 0.0 | 2.0 | 0.00 | 0.00 | 0.00 | 95 | 1020.5 |
| 20260831083056 | 72 | 0 | 0.0 | 0.0 | 0.00 | 0.00 | 0.00 | 95 | 1020.4 |
| 20260831081555 | 72 | 0 | 0.0 | 0.0 | 0.00 | 0.00 | 0.00 | 94 | 1020.2 |
| 20260831074607 | 73 | 0 | 0.0 | 0.0 | 0.00 | 0.00 | 0.00 | 94 | 1020.4 |
| 20260831073053 | 73 | 0 | 0.0 | 0.0 | 0.00 | 0.00 | 0.00 | 93 | 1020.4 |
| 20260831071608 | 73 | 0 | 0.0 | 0.0 | 0.00 | 0.00 | 0.00 | 93 | 1020.2 |
| 20260831070104 | 73 | 0 | 0.0 | 0.0 | 0.00 | 0.00 | 0.00 | 93 | 1020.3 |
| 20260831064600 | 74 | 0 | 0.0 | 0.0 | 0.00 | 0.00 | 0.00 | 92 | 1020.2 |
| 20260831063115 | 74 | 0 | 0.0 | 0.0 | 0.00 | 0.00 | 0.00 | 91 | 1020.1 |
| 20260831061549 | 74 | 0 | 0.0 | 0.0 | 0.00 | 0.00 | 0.00 | 91 | 1020.1 |
| 20260831060105 | 75 | 0 | 0.0 | 1.0 | 0.00 | 0.00 | 0.00 | 91 | 1020.3 |
| 20260831054600 | 75 | 0 | 0.0 | 1.0 | 0.00 | 0.00 | 0.00 | 90 | 1020.5 |
| 20260831053104 | 75 | 0 | 0.0 | 2.0 | 0.00 | 0.00 | 0.00 | 90 | 1020.6 |